sat.trackr.live / text

‹ back to catalog

STARLINK-4521

NORAD 53391 · 2022-097D

PAYLOAD ACTIVE UNKNOWN

§ Identity

Operator
Country
US
Launch date
2022-08-10
Launch site
AFETR
Launch vehicle
Mass (kg)
RCS (m²)

Purposes: comms

External: N2YO · Heavens-Above · Gunter

§ Orbital elements

Epoch: 2026-09-19T18:56:09.756384Z

Period
94.01 min
Inclination
53.1590°
Eccentricity
0.0001175
Mean motion
15.31710207 rev/d
Perigee alt
469.9 km
Apogee alt
471.5 km
Semi-major
6,848.8 km
B*
6.6792e-5
RAAN
322.2420°
Arg perigee
93.2658°
Mean anomaly
266.8478°
Rev number
22,811

§ Raw data

STARLINK-45211 53391U 22097D   26262.78900181  .00001709  00000+0  66792-4 0  99932 53391  53.1590 322.2420 0001175  93.2658 266.8478 15.31710207228110

JSON: /api/v1/satellites/53391 · /tle

For live sub-satellite position, see the globe view (requires WebGL).

§ Visibility from observer

Set your observer location to see the next 7 days of passes ≥ 10°. The values pass through the URL so the page stays shareable.

No JS? Fill the form by hand. The geolocation button needs JavaScript.